Regional Weather Roundup
Issued by NWS Midland/Odessa, TX

Skip options and go directly to product.
Home | Oldest Version | Previous Version | Current Version | All | Text Only | Save Text | Print | Product List | Glossary On

Skip product version selection by date and time.   
123
ASUS44 KMAF 010610
RWRMAF
MIDLAND AREA WEATHER ROUNDUP
NATIONAL WEATHER SERVICE MIDLAND TX
100 AM CDT WED JUL 01 2015

...IN SOUTHWEST TEXAS AND SOUTHEAST NEW MEXICO...

CITY           SKY/WX    TMP DP  RH WIND       PRES   REMARKS
ALPINE         CLEAR     66  61  85 E3        30.23R
ANDREWS        FAIR      73  65  77 S5        30.10S
ARTESIA        CLEAR     72  57  60 S8        30.09S
BIG SPRING     CLEAR     76  68  78 S8        30.09S
CARLSBAD       CLEAR     75  56  51 S8        30.06
DRYDEN           N/A     76  69  79 SE6       30.05S
FORT STOCKTON  NOT AVBL
GUAD PASS      PTCLDY    68  54  60 E14       30.22F
HOBBS          CLEAR     72  61  68 SE6       30.12S
MARFA          PTCLDY   N/A N/A N/A N8        30.19S
MIDLAND AIRPK  CLEAR     76  67  74 S9        30.08S
MIDLAND INTL   CLEAR     74  67  78 S10       30.08
ODESSA         CLEAR     76  65  68 S12       30.09
PECOS          CLEAR     76  63  64 SE9       30.05R
PRESIDIO       FAIR      80  63  56 NE10      30.02S
SEMINOLE       CLEAR     72  63  72 S5        30.11S
SNYDER         CLEAR     75  67  76 SE10      30.07R
WINK           CLEAR     77  64  64 S15       30.05
$$
...OTHER STATIONS IN TEXAS...

CITY           SKY/WX    TMP DP  RH WIND       PRES   REMARKS
ABILENE        CLEAR     75  68  78 S8        30.05
AMARILLO       CLEAR     71  56  58 S14       30.08
AUSTIN         PTCLDY    72  72 100 S7        30.04
BROWNSVILLE    MOCLDY    79  77  94 E8        30.02R
CORPUS CHRISTI MOCLDY    77  72  84 E5        30.02F
DALLAS FTW     MOCLDY    79  69  71 S10       30.00
DEL RIO        MOCLDY    75  71  87 E7        30.02
EL PASO        MOCLDY    78  53  41 SE6       30.08
HOUSTON INT    MOCLDY    73  71  93 CALM      30.05
LUBBOCK        PTCLDY    73  61  65 S9        30.08
SAN ANGELO     PTCLDY    74  67  78 S8        30.05
SAN ANTONIO    PTCLDY    74  69  85 SE8       30.06
WACO           PTCLDY    73  71  93 SW7       30.03
WICHITA FALLS  NOT AVBL
$$
...OTHER LOCATIONS IN NEW MEXICO...

CITY           SKY/WX    TMP DP  RH WIND       PRES   REMARKS
ALAMAGORDO     PTCLDY    77  48  36 S16       30.09S
ALBUQUERQUE    CLEAR     80  43  26 S8        30.16
CANNON AFB     CLEAR     68  56  65 S9        30.12F
CLOVIS         CLEAR     66  55  68 S8          N/A
HOLLOMAN AFB   PTCLDY    78  50  37 S16       30.08R
ROSWELL        CLEAR     73  55  53 S8        30.08
RUIDOSO        CLEAR     61  48  63 SW8       30.31F
SANTA FE       CLEAR     72  43  35 SE14      30.24R
TRUTH OR CONSE PTCLDY    77  52  41 S14       30.14R HAZE
TUCUMCARI      CLEAR     74  52  46 SW10      30.08
$$

USA.gov is the U.S. government's official web portal to all federal, state and local government web resources and services.